Lid_Strength_Index
12 12 12 12 12 12 13 14 14 15 16 17 17 17 18 18 19 19 18 17 16 15 14 14 13 12 12 11 11 10 9 9
13 13 12 12 13 13 13 14 15 15 16 17 18 18 18 19 19 19 18 17 16 15 14 14 13 12 12 12 12 11 10 10
13 13 14 14 14 14 14 14 16 16 17 18 18 19 19 20 19 19 19 18 17 15 15 14 14 12 12 13 12 12 11 11
13 14 14 15 15 15 15 15 16 17 18 19 19 20 20 20 20 20 20 19 17 15 16 15 14 13 12 13 13 12 12 11
14 14 14 15 15 15 15 16 17 18 19 19 20 20 21 21 21 21 21 20 19 17 17 16 14 13 12 13 13 12 12 11
14 14 14 15 15 16 16 17 18 19 19 20 20 21 22 22 22 22 21 20 19 18 17 16 15 13 13 14 13 13 13 12
15 15 16 16 16 16 17 18 19 19 21 21 22 23 22 22 22 22 22 21 20 19 18 17 16 13 13 14 14 13 13 13
14 15 15 16 16 17 18 18 19 21 22 23 23 23 23 23 23 22 22 21 20 19 18 17 16 13 13 14 14 14 14 13
14 15 15 16 16 17 18 19 21 22 23 23 24 24 23 23 23 22 21 20 19 19 18 17 16 13 13 14 14 14 13 13
14 15 16 17 17 18 20 20 21 22 23 23 23 24 24 24 23 21 21 20 19 18 18 19 17 14 13 14 14 14 14 13
15 16 17 17 18 19 20 21 22 22 23 23 23 24 24 23 22 21 20 20 18 18 18 19 18 15 14 14 14 15 14 12
16 17 17 17 18 20 20 21 20 21 23 23 23 23 23 22 22 22 21 20 19 19 18 18 18 16 15 14 15 15 14 14
17 17 17 18 19 20 20 20 21 23 23 24 23 23 22 22 22 22 21 21 20 19 18 17 17 16 16 15 14 15 15 15
16 18 18 18 18 19 20 21 23 23 24 24 23 23 22 23 23 22 21 21 20 19 18 18 17 16 16 16 15 15 16 15
18 19 19 19 18 18 20 22 23 23 24 24 23 23 23 22 22 22 21 21 20 19 19 18 17 17 16 16 16 16 16 16
18 19 19 19 18 19 21 22 23 23 23 23 23 23 23 22 22 22 21 19 19 18 17 17 18 18 17 17 17 17 17 17
18 18 19 19 19 22 22 22 22 23 23 23 23 23 23 23 22 20 20 18 17 17 17 17 16 17 17 17 17 16 16 17
18 18 19 19 21 21 22 21 22 22 22 22 22 23 23 23 23 23 20 18 17 17 16 16 17 17 17 17 17 17 17 19
17 18 19 19 22 21 21 21 21 21 22 22 22 22 22 22 22 22 21 21 20 17 16 16 17 18 18 18 18 20 20 20
18 18 18 19 21 21 21 21 21 20 21 21 21 22 22 22 22 21 20 20 20 20 19 18 17 18 18 18 20 21 21 21